| time (UTC) | temp F | wind direction | speed knots | gust knots | rain 1hr in | rain 24hr in | rain mn in | humidity % | barometer mb |
| 20260508023030 | 49 | 268 | 4.3 | 8.7 | 0.00 | 0.90 | 0.90 | 92 | 1001.5 |
| 20260508021532 | 49 | 252 | 4.3 | 10.4 | 0.00 | 0.90 | 0.90 | 92 | 1001.7 |
| 20260508020027 | 49 | 235 | 4.3 | 9.6 | 0.00 | 0.90 | 0.90 | 92 | 1001.7 |
| 20260508014529 | 50 | 254 | 2.6 | 8.7 | 0.00 | 0.90 | 0.90 | 92 | 1001.8 |
| 20260508013030 | 50 | 271 | 2.6 | 7.0 | 0.00 | 0.90 | 0.90 | 92 | 1001.7 |
| 20260508011532 | 50 | 251 | 3.5 | 6.1 | 0.00 | 0.90 | 0.90 | 92 | 1001.5 |
| 20260508010030 | 50 | 220 | 1.7 | 5.2 | 0.00 | 0.90 | 0.90 | 92 | 1001.9 |
| 20260508004531 | 49 | 222 | 1.7 | 5.2 | 0.00 | 0.90 | 0.90 | 91 | 1001.8 |
| 20260508003028 | 49 | 221 | 1.7 | 5.2 | 0.00 | 0.90 | 0.90 | 91 | 1001.8 |
| 20260508001530 | 49 | 190 | 1.7 | 7.8 | 0.00 | 0.90 | 0.90 | 91 | 1001.9 |
| 20260508000029 | 49 | 212 | 1.7 | 8.7 | 0.00 | 0.90 | 0.90 | 91 | 1002.0 |
| 20260507234542 | 50 | 175 | 2.6 | 8.7 | 0.00 | 0.90 | 0.90 | 91 | 1002.1 |
| 20260507233030 | 50 | 189 | 2.6 | 7.0 | 0.00 | 0.90 | 0.90 | 91 | 1001.9 |
| 20260507231528 | 51 | 176 | 3.5 | 7.8 | 0.00 | 0.90 | 0.90 | 91 | 1002.4 |
| 20260507230030 | 51 | 213 | 2.6 | 10.4 | 0.00 | 0.90 | 0.90 | 91 | 1002.2 |
| 20260507224530 | 51 | 171 | 4.3 | 13.0 | 0.00 | 0.90 | 0.90 | 91 | 1002.5 |
| 20260507223030 | 51 | 253 | 5.2 | 12.2 | 0.00 | 0.90 | 0.90 | 91 | 1002.4 |
| 20260507221534 | 51 | 213 | 3.5 | 9.6 | 0.00 | 0.90 | 0.90 | 91 | 1002.6 |
| 20260507220036 | 51 | 196 | 6.1 | 14.8 | 0.00 | 0.90 | 0.90 | 91 | 1002.5 |
| 20260507214528 | 50 | 209 | 7.0 | 13.0 | 0.02 | 0.90 | 0.90 | 91 | 1002.5 |
| 20260507213031 | 49 | 210 | 5.2 | 13.9 | 0.10 | 0.90 | 0.90 | 91 | 1002.1 |
| 20260507211534 | 49 | 173 | 8.7 | 18.2 | 0.18 | 0.90 | 0.90 | 90 | 1001.6 |
| 20260507210033 | 50 | 180 | 6.1 | 16.5 | 0.25 | 0.90 | 0.90 | 90 | 1002.3 |
| 20260507204531 | 51 | 202 | 4.3 | 9.6 | 0.35 | 0.88 | 0.88 | 90 | 1003.1 |
| 20260507203030 | 51 | 193 | 5.2 | 12.2 | 0.43 | 0.80 | 0.80 | 90 | 1003.4 |
| 20260507201528 | 51 | 177 | 2.6 | 8.7 | 0.42 | 0.70 | 0.70 | 90 | 1004.0 |
| 20260507200027 | 51 | 231 | 4.3 | 10.4 | 0.40 | 0.63 | 0.63 | 90 | 1004.7 |
| 20260507194545 | 52 | 239 | 7.0 | 13.0 | 0.32 | 0.51 | 0.51 | 90 | 1004.9 |
| 20260507193029 | 52 | 208 | 6.1 | 14.8 | 0.25 | 0.36 | 0.36 | 89 | 1004.7 |
| 20260507191530 | 52 | 214 | 7.0 | 17.4 | 0.18 | 0.28 | 0.28 | 89 | 1004.6 |
| 20260507190040 | 53 | 185 | 7.0 | 20.9 | 0.14 | 0.23 | 0.23 | 89 | 1004.6 |
| 20260507184541 | 53 | 206 | 7.8 | 20.0 | 0.10 | 0.18 | 0.18 | 88 | 1004.8 |
| 20260507183030 | 54 | 190 | 7.0 | 18.2 | 0.02 | 0.11 | 0.11 | 87 | 1005.2 |
| 20260507181532 | 54 | 144 | 7.0 | 15.6 | 0.00 | 0.09 | 0.09 | 86 | 1004.8 |
| 20260507180030 | 56 | 156 | 7.0 | 15.6 | 0.00 | 0.08 | 0.08 | 85 | 1004.8 |
| 20260507174533 | 57 | 178 | 5.2 | 13.9 | 0.00 | 0.08 | 0.08 | 85 | 1004.9 |
| 20260507173042 | 56 | 183 | 5.2 | 11.3 | 0.00 | 0.08 | 0.08 | 86 | 1005.2 |
| 20260507171530 | 55 | 203 | 7.8 | 20.0 | 0.00 | 0.08 | 0.08 | 86 | 1005.5 |
| 20260507170030 | 55 | 179 | 7.8 | 22.6 | 0.00 | 0.08 | 0.08 | 86 | 1005.9 |
| 20260507164541 | 55 | 178 | 9.6 | 22.6 | 0.00 | 0.08 | 0.08 | 86 | 1006.3 |
| 20260507163030 | 55 | 162 | 7.8 | 24.3 | 0.00 | 0.08 | 0.08 | 85 | 1006.5 |
| 20260507161539 | 56 | 162 | 7.8 | 15.6 | 0.00 | 0.08 | 0.08 | 85 | 1007.1 |
| 20260507160030 | 56 | 165 | 8.7 | 23.5 | 0.00 | 0.08 | 0.08 | 86 | 1007.4 |
| 20260507154528 | 56 | 155 | 9.6 | 19.1 | 0.00 | 0.08 | 0.08 | 87 | 1007.5 |
| 20260507153039 | 56 | 163 | 8.7 | 17.4 | 0.00 | 0.08 | 0.08 | 86 | 1008.0 |
| 20260507151532 | 55 | 197 | 8.7 | 24.3 | 0.00 | 0.08 | 0.08 | 86 | 1008.6 |
| 20260507150033 | 55 | 204 | 7.8 | 18.2 | 0.00 | 0.08 | 0.08 | 87 | 1008.5 |
| 20260507144535 | 55 | 192 | 7.8 | 18.2 | 0.00 | 0.08 | 0.08 | 88 | 1009.0 |
| 20260507143028 | 55 | 206 | 7.0 | 17.4 | 0.00 | 0.08 | 0.08 | 88 | 1009.5 |
| 20260507141532 | 55 | 171 | 7.8 | 23.5 | 0.00 | 0.08 | 0.08 | 88 | 1009.6 |
| 20260507140030 | 54 | 218 | 8.7 | 18.2 | 0.00 | 0.08 | 0.08 | 88 | 1009.9 |
| 20260507134528 | 54 | 150 | 8.7 | 23.5 | 0.00 | 0.08 | 0.08 | 88 | 1009.9 |
| 20260507133029 | 55 | 178 | 9.6 | 22.6 | 0.00 | 0.08 | 0.08 | 88 | 1010.2 |
| 20260507131530 | 55 | 161 | 6.1 | 18.2 | 0.00 | 0.08 | 0.08 | 89 | 1010.0 |
| 20260507130038 | 55 | 194 | 6.1 | 18.2 | 0.00 | 0.08 | 0.08 | 90 | 1009.5 |
| 20260507124537 | 54 | 202 | 7.0 | 21.7 | 0.00 | 0.08 | 0.08 | 90 | 1009.8 |
| 20260507123028 | 54 | 180 | 10.4 | 25.2 | 0.00 | 0.08 | 0.08 | 90 | 1010.2 |
| 20260507121528 | 54 | 169 | 10.4 | 23.5 | 0.00 | 0.08 | 0.08 | 90 | 1010.7 |
| 20260507120030 | 53 | 161 | 7.0 | 18.2 | 0.00 | 0.08 | 0.08 | 90 | 1010.7 |
| 20260507114552 | 53 | 169 | 9.6 | 23.5 | 0.00 | 0.08 | 0.08 | 90 | 1011.6 |
| 20260507113050 | 53 | 157 | 10.4 | 25.2 | 0.00 | 0.08 | 0.08 | 91 | 1011.6 |
| 20260507111536 | 52 | 225 | 6.1 | 25.2 | 0.00 | 0.08 | 0.08 | 91 | 1011.6 |
| 20260507110030 | 52 | 170 | 7.8 | 20.0 | 0.00 | 0.08 | 0.08 | 91 | 1011.5 |
| 20260507104539 | 52 | 172 | 8.7 | 20.9 | 0.00 | 0.08 | 0.08 | 91 | 1011.7 |
| 20260507103027 | 51 | 196 | 7.0 | 19.1 | 0.00 | 0.08 | 0.08 | 91 | 1012.2 |
| 20260507101530 | 52 | 194 | 5.2 | 14.8 | 0.00 | 0.08 | 0.08 | 91 | 1012.2 |
| 20260507100029 | 52 | 177 | 5.2 | 11.3 | 0.00 | 0.08 | 0.08 | 91 | 1012.0 |
| 20260507094532 | 52 | 157 | 5.2 | 11.3 | 0.03 | 0.07 | 0.07 | 91 | 1012.5 |
| 20260507093034 | 52 | 184 | 7.0 | 13.9 | 0.05 | 0.07 | 0.07 | 91 | 1012.8 |
| 20260507091528 | 52 | 159 | 5.2 | 10.4 | 0.06 | 0.07 | 0.07 | 91 | 1012.5 |
| 20260507090027 | 52 | 162 | 4.3 | 10.4 | 0.07 | 0.07 | 0.07 | 91 | 1012.7 |
| 20260507084539 | 51 | 206 | 5.2 | 13.9 | 0.03 | 0.03 | 0.03 | 90 | 1012.7 |
| 20260507083028 | 51 | 187 | 6.1 | 13.0 | 0.02 | 0.02 | 0.02 | 90 | 1012.5 |
| 20260507081535 | 52 | 164 | 5.2 | 12.2 | 0.01 | 0.01 | 0.01 | 90 | 1012.7 |
| 20260507080029 | 52 | 160 | 3.5 | 13.9 | 0.00 | 0.00 | 0.00 | 90 | 1013.1 |
| 20260507074532 | 52 | 185 | 7.0 | 12.2 | 0.00 | 0.00 | 0.00 | 90 | 1013.6 |
| 20260507073030 | 52 | 202 | 5.2 | 16.5 | 0.00 | 0.00 | 0.00 | 90 | 1013.6 |
| 20260507071528 | 52 | 181 | 4.3 | 10.4 | 0.00 | 0.00 | 0.00 | 89 | 1013.8 |
| 20260507070030 | 52 | 187 | 4.3 | 12.2 | 0.00 | 0.00 | 0.00 | 89 | 1013.8 |
| 20260507064530 | 52 | 217 | 4.3 | 9.6 | 0.00 | 0.00 | 0.00 | 89 | 1014.0 |
| 20260507063028 | 53 | 210 | 3.5 | 8.7 | 0.00 | 0.00 | 0.00 | 89 | 1014.2 |
| 20260507061529 | 53 | 217 | 4.3 | 9.6 | 0.00 | 0.00 | 0.00 | 89 | 1014.3 |
| 20260507060028 | 53 | 204 | 4.3 | 10.4 | 0.00 | 0.00 | 0.00 | 89 | 1014.7 |
| 20260507054530 | 53 | 189 | 6.1 | 13.0 | 0.00 | 0.00 | 0.00 | 89 | 1014.7 |
| 20260507053028 | 53 | 240 | 6.1 | 14.8 | 0.00 | 0.00 | 0.00 | 89 | 1014.8 |
| 20260507051528 | 53 | 201 | 6.1 | 13.9 | 0.00 | 0.00 | 0.00 | 89 | 1015.2 |
| 20260507050030 | 53 | 220 | 6.1 | 16.5 | 0.00 | 0.00 | 0.00 | 89 | 1015.6 |
| 20260507044532 | 53 | 189 | 6.1 | 13.0 | 0.00 | 0.00 | 0.00 | 89 | 1015.7 |
| 20260507043030 | 53 | 223 | 5.2 | 13.9 | 0.00 | 0.00 | 0.00 | 89 | 1016.2 |
| 20260507041528 | 53 | 221 | 6.1 | 14.8 | 0.00 | 0.00 | 0.00 | 89 | 1016.3 |
| 20260507040030 | 52 | 245 | 4.3 | 8.7 | 0.00 | 0.00 | 0.00 | 88 | 1016.6 |
| 20260507034535 | 52 | 234 | 4.3 | 12.2 | 0.00 | 0.00 | 0.00 | 88 | 1016.7 |
| 20260507033028 | 53 | 263 | 5.2 | 12.2 | 0.00 | 0.00 | 0.00 | 88 | 1017.1 |
| 20260507031529 | 53 | 264 | 5.2 | 8.7 | 0.00 | 0.00 | 0.00 | 87 | 1017.2 |
| 20260507030028 | 54 | 200 | 4.3 | 13.0 | 0.00 | 0.00 | 0.00 | 87 | 1017.1 |
| 20260507024530 | 54 | 185 | 6.1 | 13.9 | 0.00 | 0.00 | 0.00 | 87 | 1017.3 |